Location: *
(47.2969°N, 10.2930°E)
Time: 07:08:01
(UTC+00:00)

Cosmos 1697 Rocket - Pass Details

Date: 09 April 2020
Orbit: 831 x 845 km, 71.0° (Epoch: 02 June)

Event Time Altitude Azimuth Distance (km) Brightness Sun altitude
Rises 19:22:04 0° 338° (NNW) 3,412 6.7 -13.8°
Reaches altitude 10° 19:25:01 10° 352° (N) 2,475 5.6 -14.2°
Maximum altitude 19:29:34 24° 45° (NE) 1,689 4.1 -14.9°
Enters shadow 19:32:26 17° 85° (E) 2,039 4.2 -15.3°
